EN

Hourly Weather Ouricuri

Today, 7 March, Sunday

Time Temperature Precipitation Wind Pressure Humidity
00:00 +24°C° 0 mm 1 mps 718 mmHg 81%
01:00 +24°C° 0 mm 1 mps 718 mmHg 82%
02:00 +24°C° 0 mm 1 mps 719 mmHg 83%
03:00 +24°C° 0 mm 1 mps 719 mmHg 84%
04:00 +24°C° 0 mm 1 mps 719 mmHg 86%
05:00 +21°C° 0 mm 0 mps 719 mmHg 87%
06:00 +21°C° 0 mm 0 mps 719 mmHg 89%
07:00 +25°C° 0 mm 1 mps 720 mmHg 80%
08:00 +28°C° 0 mm 1 mps 721 mmHg 71%
09:00 +30°C° 0 mm 1 mps 721 mmHg 62%
10:00 +32°C° 0 mm 2 mps 721 mmHg 56%
11:00 +34°C° 0 mm 2 mps 721 mmHg 49%
12:00 +36°C° 0 mm 2 mps 721 mmHg 43%
13:00 +36°C° 0 mm 2 mps 720 mmHg 41%
14:00 +36°C° 0 mm 3 mps 719 mmHg 38%
15:00 +37°C° 0 mm 3 mps 718 mmHg 36%
16:00 +35°C° 0 mm 2 mps 718 mmHg 43%
17:00 +32°C° 0 mm 2 mps 717 mmHg 49%
18:00 +30°C° 0 mm 2 mps 717 mmHg 56%
19:00 +29°C° 0 mm 2 mps 717 mmHg 59%
20:00 +27°C° 0 mm 2 mps 718 mmHg 62%
21:00 +26°C° 0 mm 2 mps 718 mmHg 65%
22:00 +26°C° 0 mm 2 mps 718 mmHg 66%
23:00 +25°C° 0 mm 1 mps 718 mmHg 67%

Tomorrow, 8 March, Monday

Time Temperature Precipitation Wind Pressure Humidity
00:00 +25°C° 0 mm 1 mps 719 mmHg 67%
01:00 +24°C° 0 mm 1 mps 718 mmHg 70%
02:00 +24°C° 0 mm 1 mps 718 mmHg 73%
03:00 +23°C° 0 mm 1 mps 718 mmHg 76%
04:00 +23°C° 0 mm 1 mps 718 mmHg 80%
05:00 +21°C° 0 mm 0 mps 719 mmHg 84%
06:00 +20°C° 0 mm 0 mps 719 mmHg 88%
07:00 +23°C° 0 mm 0 mps 720 mmHg 79%
08:00 +28°C° 0 mm 1 mps 720 mmHg 70%
09:00 +31°C° 0 mm 1 mps 721 mmHg 61%
10:00 +32°C° 0 mm 1 mps 721 mmHg 55%
11:00 +34°C° 0 mm 2 mps 720 mmHg 49%
12:00 +35°C° 0 mm 2 mps 720 mmHg 43%
13:00 +35°C° 0 mm 2 mps 719 mmHg 41%
14:00 +36°C° 0 mm 2 mps 718 mmHg 40%
15:00 +36°C° 0 mm 2 mps 718 mmHg 38%
16:00 +34°C° 0 mm 2 mps 717 mmHg 42%
17:00 +31°C° 0 mm 1 mps 717 mmHg 46%
18:00 +30°C° 0 mm 1 mps 716 mmHg 51%
19:00 +28°C° 0 mm 1 mps 717 mmHg 55%
20:00 +27°C° 0 mm 2 mps 717 mmHg 59%
21:00 +26°C° 0 mm 2 mps 718 mmHg 63%
22:00 +25°C° 0 mm 2 mps 718 mmHg 64%
23:00 +25°C° 0 mm 1 mps 718 mmHg 65%

Day after tomorrow, 9 March, Tuesday

Time Temperature Precipitation Wind Pressure Humidity
00:00 +24°C° 0 mm 1 mps 718 mmHg 66%
01:00 +24°C° 0 mm 1 mps 718 mmHg 68%
02:00 +24°C° 0 mm 1 mps 718 mmHg 70%
03:00 +23°C° 0 mm 1 mps 718 mmHg 72%
04:00 +23°C° 0 mm 1 mps 718 mmHg 77%
05:00 +23°C° 0 mm 1 mps 718 mmHg 82%
06:00 +22°C° 0 mm 1 mps 718 mmHg 87%
07:00 +25°C° 0 mm 1 mps 719 mmHg 78%
08:00 +27°C° 0 mm 1 mps 719 mmHg 68%
09:00 +30°C° 0 mm 2 mps 720 mmHg 59%
10:00 +32°C° 0 mm 2 mps 720 mmHg 52%
11:00 +35°C° 0 mm 2 mps 719 mmHg 44%
12:00 +36°C° 0 mm 2 mps 719 mmHg 37%
13:00 +37°C° 0 mm 2 mps 718 mmHg 35%
14:00 +37°C° 0 mm 2 mps 717 mmHg 33%
15:00 +37°C° 0 mm 3 mps 716 mmHg 31%
16:00 +35°C° 0 mm 2 mps 716 mmHg 36%
17:00 +31°C° 0 mm 2 mps 716 mmHg 42%
18:00 +29°C° 0 mm 1 mps 716 mmHg 47%
19:00 +28°C° 0 mm 2 mps 716 mmHg 51%
20:00 +27°C° 0 mm 2 mps 716 mmHg 54%
21:00 +26°C° 0 mm 2 mps 717 mmHg 58%
22:00 +26°C° 0 mm 2 mps 717 mmHg 58%
23:00 +26°C° 0 mm 2 mps 717 mmHg 58%

10 March, Wednesday

Time Temperature Precipitation Wind Pressure Humidity
00:00 +25°C° 0 mm 2 mps 718 mmHg 58%
01:00 +25°C° 0 mm 1 mps 718 mmHg 63%
02:00 +24°C° 0 mm 1 mps 717 mmHg 69%
03:00 +21°C° 0 mm 0 mps 717 mmHg 74%
04:00 +21°C° 0 mm 0 mps 718 mmHg 77%
05:00 +23°C° 0 mm 1 mps 718 mmHg 79%
06:00 +23°C° 0 mm 1 mps 718 mmHg 81%
07:00 +25°C° 0 mm 1 mps 719 mmHg 74%
08:00 +28°C° 0 mm 1 mps 719 mmHg 66%
09:00 +30°C° 0 mm 1 mps 720 mmHg 59%
10:00 +32°C° 0 mm 1 mps 720 mmHg 52%
11:00 +34°C° 0 mm 1 mps 719 mmHg 45%
12:00 +36°C° 0 mm 1 mps 719 mmHg 38%
13:00 +36°C° 0 mm 2 mps 718 mmHg 37%
14:00 +36°C° 0 mm 2 mps 717 mmHg 37%
15:00 +36°C° 0 mm 2 mps 716 mmHg 36%
16:00 +34°C° 0 mm 2 mps 716 mmHg 41%
17:00 +31°C° 0 mm 1 mps 716 mmHg 46%
18:00 +30°C° 0 mm 1 mps 716 mmHg 50%
19:00 +29°C° 0 mm 1 mps 716 mmHg 55%
20:00 +28°C° 0 mm 1 mps 717 mmHg 60%
21:00 +26°C° 0 mm 2 mps 717 mmHg 65%
22:00 +26°C° 0 mm 1 mps 717 mmHg 66%
23:00 +26°C° 0 mm 1 mps 718 mmHg 67%

11 March, Thursday

Time Temperature Precipitation Wind Pressure Humidity
00:00 +25°C° 0 mm 1 mps 718 mmHg 69%
01:00 +25°C° 0 mm 1 mps 718 mmHg 72%
02:00 +24°C° 0 mm 1 mps 718 mmHg 74%
03:00 +22°C° 0 mm 0 mps 718 mmHg 77%
04:00 +21°C° 0 mm 0 mps 718 mmHg 79%
05:00 +23°C° 0 mm 1 mps 718 mmHg 82%
06:00 +23°C° 0 mm 1 mps 719 mmHg 84%
07:00 +25°C° 0 mm 1 mps 719 mmHg 74%
08:00 +28°C° 0 mm 1 mps 720 mmHg 64%
09:00 +30°C° 0 mm 2 mps 721 mmHg 55%
10:00 +32°C° 0 mm 2 mps 720 mmHg 49%
11:00 +34°C° 0 mm 3 mps 720 mmHg 44%
12:00 +36°C° 0 mm 3 mps 719 mmHg 38%
13:00 +36°C° 0 mm 3 mps 719 mmHg 39%
14:00 +35°C° 0 mm 3 mps 718 mmHg 40%
15:00 +35°C° 0 mm 3 mps 717 mmHg 40%
16:00 +34°C° 0 mm 2 mps 717 mmHg 44%
17:00 +31°C° 0 mm 1 mps 717 mmHg 47%
18:00 +30°C° 0 mm 1 mps 716 mmHg 50%
19:00 +29°C° 0 mm 1 mps 717 mmHg 52%
20:00 +29°C° 0 mm 1 mps 717 mmHg 54%
21:00 +28°C° 0 mm 1 mps 718 mmHg 55%
22:00 +28°C° 0 mm 1 mps 718 mmHg 57%
23:00 +28°C° 0 mm 1 mps 718 mmHg 59%

12 March, Friday

Time Temperature Precipitation Wind Pressure Humidity
00:00 +28°C° 0 mm 1 mps 719 mmHg 60%
01:00 +26°C° 0 mm 1 mps 718 mmHg 66%
02:00 +25°C° 0 mm 1 mps 718 mmHg 72%
03:00 +24°C° 0 mm 1 mps 718 mmHg 79%
04:00 +24°C° 0 mm 1 mps 718 mmHg 82%
05:00 +23°C° 0 mm 1 mps 719 mmHg 85%
06:00 +21°C° 0 mm 0 mps 719 mmHg 88%
07:00 +25°C° 0 mm 1 mps 719 mmHg 77%
08:00 +28°C° 0 mm 1 mps 720 mmHg 67%
09:00 +30°C° 0 mm 2 mps 720 mmHg 56%
10:00 +32°C° 0 mm 2 mps 720 mmHg 51%
11:00 +34°C° 0 mm 2 mps 720 mmHg 46%
12:00 +35°C° 0 mm 2 mps 720 mmHg 41%
13:00 +36°C° 0 mm 2 mps 719 mmHg 39%
14:00 +36°C° 0 mm 2 mps 718 mmHg 37%
15:00 +36°C° 0 mm 2 mps 717 mmHg 35%
16:00 +34°C° 0 mm 2 mps 717 mmHg 37%
17:00 +32°C° 0 mm 2 mps 717 mmHg 39%
18:00 +30°C° 0 mm 1 mps 716 mmHg 42%
19:00 +29°C° 0 mm 1 mps 717 mmHg 47%
20:00 +27°C° 0 mm 2 mps 717 mmHg 53%
21:00 +26°C° 0 mm 2 mps 717 mmHg 58%
22:00 +25°C° 0 mm 1 mps 718 mmHg 61%
23:00 +25°C° 0 mm 1 mps 718 mmHg 64%
Show more

We Need Your Consent

Meteoprog and our Service Providers may store and access personal data such as cookies, device identifiers or other similar technologies on your device and process such data to personalise content and ads, as well as provide social media features and to analyse the traffic.

  • Store and/or access information on your device

    Cookies, device identifiers or other information can be stored or accessed on your device for the purposes indicated above.

  • Personalised ads and content, ad and content measurement, audience insights, and products development

    Ads and content can be personalised based on a profile. More data can be added to better personalise ads and content. Ad and content performance can be measured. Insights about the audience who saw the ads and content can be derived. Such data can be used to develop or improve user’s experience, systems and software.

By clicking ‘I Agree’ you will allow the use of indicated cookies, device identifiers, web beacons or other similar technologies. Your settings can be changed in the browser on your device.

For certain purposes, legitimate interests may be relied on, rather than consent. You can read more about this in our Privacy and Cookie Policy.